Location: Coffee Ditch
(40.9640°N, 122.7500°W)
Time: 07:05:43
(UTC+00:00)

ISS - Pass Details

Date: 08 September 2024
Orbit: 413 x 425 km, 51.6° (Epoch: 06 October)

Event Time Altitude Azimuth Distance (km) Brightness Sun altitude
Exits shadow 11:20:28 14° 112° (ESE) 1,302 -0.9 -26.2°
Drops below altitude 10° 11:20:58 10° 114° (ESE) 1,497 -0.6 -26.1°
Enters shadow 12:27:00 -49° 314° (NW) 10,203 3.2 -15.1°
